period_start,C,m1,H,J0,J1,J2,J3,J4,J5,JA,JB,JC,JD,JJ,JK,JN,#
2013-10-03 00:00:07,0.01,0.02,0.00,19.89,22.94,25.64,5.98,30.00,1011.20,2066.99,3569.44,3373.03,3667.02,350.19,325.75,2.42,0000 0000 0000 0000 000000
2013-10-03 00:01:07,0.02,0.02,0.00,19.89,22.94,25.66,6.07,29.46,1011.19,2066.99,3569.31,3373.05,3667.02,350.17,325.28,2.42,0000 0000 0000 0000 000000
2013-10-03 00:02:07,0.00,0.02,0.00,19.90,22.94,25.57,5.98,30.00,1011.19,2066.99,3569.32,3373.04,3667.01,350.39,326.02,2.43,0000 0000 0000 0000 000000
2013-10-03 00:03:08,-0.01,0.02,0.00,19.90,22.94,25.53,6.05,29.79,1011.23,2066.99,3569.50,3373.09,3667.05,349.90,325.57,2.44,0000 0000 0000 0000 000000
2013-10-03 00:04:08,-0.03,0.02,0.00,19.90,22.94,25.52,5.86,29.88,1011.22,2066.99,3569.36,3373.05,3667.03,349.70,325.38,2.44,0000 0000 0000 0000 000000
2013-10-03 00:05:08,0.04,0.02,0.00,19.90,22.94,25.55,5.96,29.79,1011.24,2066.99,3569.20,3373.05,3667.03,349.36,324.88,2.45,0000 0000 0000 0000 000000
2013-10-03 00:06:09,0.02,0.02,0.00,19.89,22.93,25.59,5.97,29.83,1011.23,2066.99,3569.26,3373.08,3667.02,349.63,324.97,2.45,0000 0000 0000 0000 000000
2013-10-03 00:07:09,-0.01,0.02,0.00,19.89,22.93,25.62,6.02,29.67,1011.23,2066.99,3569.24,3373.10,3667.01,350.00,325.92,2.46,0000 0000 0000 0000 000000
2013-10-03 00:08:09,-0.01,0.02,0.00,19.89,22.92,25.63,6.07,29.75,1011.22,2067.00,3569.16,3373.08,3667.04,349.88,325.46,2.47,0000 0000 0000 0000 000000
2013-10-03 00:09:09,0.01,0.02,0.00,19.89,22.92,25.52,5.95,30.04,1011.20,2067.02,3569.11,3373.05,3667.03,349.94,325.60,2.47,0000 0000 0000 0000 000000
2013-10-03 00:10:10,0.02,0.02,0.00,19.90,22.92,25.61,5.99,30.00,1011.23,2067.00,3569.10,3373.03,3667.01,349.96,325.62,2.48,0000 0000 0000 0000 000000
2013-10-03 00:11:10,0.00,0.02,0.00,19.91,22.92,25.59,5.96,29.96,1011.22,2067.00,3569.08,3373.01,3667.00,349.32,325.01,2.48,0000 0000 0000 0000 000000
2013-10-03 00:12:10,0.01,0.02,0.00,19.91,22.92,25.56,6.13,29.75,1011.24,2067.00,3569.08,3373.04,3667.00,350.16,325.80,2.49,0000 0000 0000 0000 000000
2013-10-03 00:13:10,-0.00,0.02,0.00,19.90,22.92,25.58,6.03,30.04,1011.18,2067.00,3569.15,3373.04,3667.01,350.00,325.64,2.49,0000 0000 0000 0000 000000
2013-10-03 00:14:10,-0.01,0.02,0.00,19.90,22.92,25.58,6.04,30.04,1011.17,2067.01,3569.07,3373.03,3667.00,349.85,325.64,2.50,0000 0000 0000 0000 000000
2013-10-03 00:15:11,0.02,0.02,0.00,19.90,22.92,25.58,5.86,30.17,1011.14,2067.00,3569.04,3373.02,3667.00,349.46,325.13,2.51,0000 0000 0000 0000 000000
2013-10-03 00:16:11,0.00,0.02,0.00,19.90,22.92,25.66,6.04,30.04,1011.06,2067.01,3569.05,3373.02,3667.01,350.29,325.48,2.51,0000 0000 0000 0000 000000
2013-10-03 00:17:11,0.00,0.02,0.00,19.91,22.92,25.62,5.97,29.96,1010.96,2067.01,3569.04,3373.01,3667.00,350.43,325.95,2.52,0000 0000 0000 0000 000000
2013-10-03 00:18:11,0.00,0.02,0.00,19.92,22.92,25.49,5.93,30.08,1010.99,2067.00,3569.04,3373.00,3667.00,349.70,325.28,2.52,0000 0000 0000 0000 000000
2013-10-03 00:19:12,0.00,0.02,0.00,19.92,22.92,25.55,5.98,30.17,1010.94,2067.02,3569.01,3373.00,3667.00,349.35,324.94,2.53,0000 0000 0000 0000 000000
2013-10-03 00:20:12,0.01,0.02,0.00,19.92,22.92,25.56,5.96,30.00,1010.87,2067.02,3569.00,3373.00,3667.00,349.60,325.15,2.54,0000 0000 0000 0000 000000
2013-10-03 00:21:12,0.00,0.02,0.00,19.92,22.92,25.52,6.01,30.13,1010.89,2067.04,3569.01,3373.00,3667.00,349.81,325.36,2.54,0000 0000 0000 0000 000000
2013-10-03 00:22:12,0.00,0.02,0.00,19.92,22.92,25.60,6.04,30.21,1010.86,2067.02,3569.01,3373.01,3667.00,349.83,325.36,2.55,0000 0000 0000 0000 000000
2013-10-03 00:23:12,0.00,0.02,0.00,19.92,22.92,25.55,5.90,30.00,1010.89,2067.03,3569.01,3373.01,3667.00,349.82,325.37,2.55,0000 0000 0000 0000 000000
2013-10-03 00:24:13,0.01,0.02,0.00,19.92,22.92,25.56,6.13,30.17,1010.98,2067.02,3569.00,3373.00,3667.00,350.65,326.14,2.56,0000 0000 0000 0000 000000
2013-10-03 00:25:13,0.00,0.02,0.00,19.92,22.91,25.66,5.99,30.00,1011.04,2067.02,3569.00,3373.00,3667.00,350.72,326.24,2.56,0000 0000 0000 0000 000000
2013-10-03 00:26:13,0.00,0.02,0.00,19.92,22.91,25.58,6.03,30.04,1011.06,2067.05,3569.01,3373.01,3667.00,349.30,324.93,2.57,0000 0000 0000 0000 000000
2013-10-03 00:27:13,0.01,0.02,0.00,19.92,22.90,25.53,5.94,30.00,1011.01,2067.07,3569.00,3373.00,3667.00,350.16,325.71,2.58,0000 0000 0000 0000 000000
2013-10-03 00:28:14,0.02,0.02,0.00,19.92,22.90,25.55,5.90,29.79,1011.04,2067.06,3569.00,3373.00,3667.00,349.73,325.33,2.58,0000 0000 0000 0000 000000
2013-10-03 00:29:14,0.00,0.02,0.00,19.92,22.90,25.50,6.03,29.88,1011.05,2067.06,3569.00,3373.00,3667.00,349.68,325.49,2.59,0000 0000 0000 0000 000000
2013-10-03 00:30:14,-0.00,0.02,0.00,19.92,22.90,25.56,6.00,30.04,1011.06,2067.10,3569.00,3373.00,3667.00,349.88,325.47,2.59,0000 0000 0000 0000 000000
2013-10-03 00:31:14,0.03,0.02,0.00,19.93,22.90,25.57,6.09,29.92,1011.05,2067.18,3569.00,3373.00,3667.00,349.11,324.75,2.60,0000 0000 0000 0000 000000
2013-10-03 00:32:14,0.05,0.02,0.00,19.93,22.90,25.58,5.96,30.08,1011.05,2067.15,3569.00,3373.00,3667.00,349.94,325.52,2.61,0000 0000 0000 0000 000000
2013-10-03 00:33:15,-0.01,0.02,0.00,19.92,22.90,25.64,6.10,30.25,1011.01,2067.24,3569.00,3373.00,3666.99,349.92,325.71,2.61,0000 0000 0000 0000 000000
2013-10-03 00:34:15,0.04,0.02,0.00,19.94,22.90,25.63,6.01,30.08,1011.00,2067.18,3569.00,3373.00,3666.99,349.82,325.39,2.62,0000 0000 0000 0000 000000
2013-10-03 00:35:15,-0.05,0.02,0.00,19.94,22.90,25.65,5.93,30.13,1011.06,2067.18,3568.99,3373.00,3666.97,350.05,325.24,2.62,0000 0000 0000 0000 000000
2013-10-03 00:36:15,0.00,0.02,0.00,19.94,22.90,25.59,6.10,30.08,1011.11,2067.20,3568.99,3373.00,3666.98,350.25,325.80,2.63,0000 0000 0000 0000 000000
2013-10-03 00:37:16,0.01,0.02,0.00,19.94,22.90,25.56,5.98,29.83,1011.10,2067.22,3568.98,3373.00,3666.97,350.10,325.65,2.63,0000 0000 0000 0000 000000
2013-10-03 00:38:16,0.01,0.02,0.00,19.94,22.89,25.50,6.05,30.00,1011.08,2067.22,3568.97,3373.00,3666.97,350.86,325.69,2.64,0000 0000 0000 0000 000000
2013-10-03 00:39:16,-0.01,0.02,0.00,19.94,22.89,25.52,6.04,30.04,1011.15,2067.15,3568.98,3373.00,3666.91,350.46,326.02,2.65,0000 0000 0000 0000 000000
2013-10-03 00:40:16,-0.02,0.02,0.00,19.94,22.89,25.58,5.94,29.92,1011.11,2067.20,3568.98,3373.00,3666.80,349.04,324.68,2.65,0000 0000 0000 0000 000000
2013-10-03 00:41:16,0.04,0.02,0.00,19.95,22.89,25.65,5.99,30.08,1011.15,2067.17,3568.95,3372.99,3666.65,349.80,325.68,2.66,0000 0000 0000 0000 000000
2013-10-03 00:42:17,0.00,0.02,0.00,19.95,22.89,25.53,6.07,30.08,1011.17,2067.17,3568.95,3372.97,3666.50,350.84,326.37,2.66,0000 0000 0000 0000 000000
2013-10-03 00:43:17,0.01,0.02,0.00,19.94,22.89,25.48,5.98,30.33,1011.18,2067.11,3568.83,3372.98,3666.28,349.84,325.65,2.67,0000 0000 0000 0000 000000
2013-10-03 00:44:17,-0.00,0.02,0.00,19.94,22.89,25.49,5.97,30.17,1011.13,2067.06,3568.73,3372.97,3666.17,349.85,325.37,2.68,0000 0000 0000 0000 000000
2013-10-03 00:45:17,0.01,0.02,0.00,19.94,22.89,25.54,5.96,30.08,1011.15,2067.09,3568.61,3372.93,3666.12,349.69,324.98,2.68,0000 0000 0000 0000 000000
2013-10-03 00:46:18,0.02,0.02,0.00,19.94,22.89,25.60,6.07,30.00,1011.22,2067.08,3568.66,3372.93,3666.09,350.07,325.40,2.69,0000 0000 0000 0000 000000
2013-10-03 00:47:18,0.00,0.02,0.00,19.94,22.89,25.57,5.98,30.13,1011.24,2067.11,3568.62,3372.95,3666.06,349.24,325.07,2.69,0000 0000 0000 0000 000000
2013-10-03 00:48:18,0.04,0.02,0.00,19.95,22.89,25.57,6.00,30.04,1011.23,2067.25,3568.71,3372.98,3666.13,349.80,325.41,2.70,0000 0000 0000 0000 000000
2013-10-03 00:49:18,0.06,0.02,0.00,19.95,22.89,25.45,5.99,30.25,1011.16,2067.28,3568.82,3372.98,3666.17,349.81,325.86,2.71,0000 0000 0000 0000 000000
2013-10-03 00:50:18,-0.01,0.02,0.00,19.96,22.89,25.50,5.92,30.21,1011.21,2067.21,3568.81,3372.96,3666.09,349.17,324.81,2.71,0000 0000 0000 0000 000000
2013-10-03 00:51:19,-0.02,0.02,0.00,19.96,22.89,25.58,6.13,30.42,1011.24,2067.32,3568.78,3372.95,3666.08,350.08,326.05,2.72,0000 0000 0000 0000 000000
2013-10-03 00:52:19,0.06,0.02,0.00,19.96,22.89,25.54,5.99,30.13,1011.23,2067.26,3568.69,3372.93,3666.07,350.31,325.88,2.72,0000 0000 0000 0000 000000
2013-10-03 00:53:19,-0.02,0.02,0.00,19.95,22.89,25.58,5.95,30.25,1011.21,2067.14,3568.58,3372.92,3666.04,349.83,325.44,2.73,0000 0000 0000 0000 000000
2013-10-03 00:54:19,-0.03,0.02,0.00,19.96,22.89,25.60,6.04,30.21,1011.22,2067.24,3568.49,3372.89,3666.02,350.10,325.87,2.73,0000 0000 0000 0000 000000
2013-10-03 00:55:20,0.05,0.02,0.00,19.96,22.89,25.62,5.86,30.08,1011.24,2067.22,3568.36,3372.82,3666.03,349.95,325.56,2.74,0000 0000 0000 0000 000000
2013-10-03 00:56:20,0.03,0.02,0.00,19.96,22.89,25.48,5.87,30.04,1011.24,2067.21,3568.25,3372.78,3666.02,349.97,325.57,2.75,0000 0000 0000 0000 000000
2013-10-03 00:57:20,0.00,0.02,0.00,19.97,22.89,25.48,6.07,30.17,1011.24,2067.15,3568.17,3372.57,3666.00,350.26,325.74,2.75,0000 0000 0000 0000 000000
2013-10-03 00:58:21,0.01,0.02,0.00,19.97,22.89,25.64,6.14,30.13,1011.24,2067.22,3568.15,3372.47,3666.01,350.26,325.61,2.76,0000 0000 0000 0000 000000
2013-10-03 00:59:21,0.07,0.02,0.00,19.97,22.89,25.64,5.93,30.13,1011.24,2067.27,3568.13,3372.46,3666.01,349.98,325.57,2.76,0000 0000 0000 0000 000000
2013-10-03 01:00:21,0.06,0.03,0.00,19.97,22.89,25.55,5.95,30.00,1011.22,2067.26,3568.08,3372.40,3666.00,349.57,325.18,2.77,0000 0000 0000 0000 000000
2013-10-03 01:01:21,0.00,0.03,0.00,19.97,22.89,25.59,5.92,30.13,1011.24,2067.34,3568.08,3372.43,3666.00,348.67,324.35,2.78,0000 0000 0000 0000 000000
2013-10-03 01:02:21,0.03,0.03,0.00,19.97,22.89,25.61,5.90,30.13,1011.24,2067.32,3568.05,3372.42,3666.00,349.32,324.95,2.78,0000 0000 0000 0000 000000
2013-10-03 01:03:22,-0.01,0.03,0.00,19.97,22.89,25.63,5.80,29.96,1011.24,2067.30,3568.06,3372.39,3666.00,349.23,325.33,2.79,0000 0000 0000 0000 000000
2013-10-03 01:04:22,0.03,0.03,0.00,19.97,22.89,25.62,6.13,30.00,1011.24,2067.39,3568.04,3372.35,3666.00,350.85,326.13,2.79,0000 0000 0000 0000 000000
2013-10-03 01:05:22,0.04,0.03,0.00,19.97,22.89,25.60,5.98,30.13,1011.24,2067.51,3568.03,3372.34,3666.00,349.93,325.52,2.80,0000 0000 0000 0000 000000
2013-10-03 01:06:22,0.10,0.03,0.00,19.97,22.89,25.53,6.14,30.08,1011.24,2067.52,3568.06,3372.36,3666.00,351.15,326.66,2.80,0000 0000 0000 0000 000000
2013-10-03 01:07:23,0.03,0.03,0.00,19.97,22.89,25.55,5.90,30.13,1011.24,2067.58,3568.07,3372.47,3666.00,348.97,324.63,2.81,0000 0000 0000 0000 000000
2013-10-03 01:08:23,0.00,0.03,0.00,19.98,22.89,25.49,6.05,30.25,1011.24,2067.53,3568.04,3372.36,3666.00,350.03,325.88,2.82,0000 0000 0000 0000 000000
2013-10-03 01:09:23,-0.00,0.03,0.00,19.98,22.89,25.59,5.88,30.04,1011.24,2067.50,3568.03,3372.25,3666.00,350.16,325.72,2.82,0000 0000 0000 0000 000000
2013-10-03 01:10:23,0.01,0.03,0.00,19.98,22.89,25.63,6.00,30.08,1011.24,2067.50,3568.01,3372.21,3666.00,349.41,324.92,2.83,0000 0000 0000 0000 000000
2013-10-03 01:11:24,0.04,0.03,0.00,19.97,22.89,25.57,5.97,30.00,1011.24,2067.55,3568.03,3372.23,3666.00,350.56,325.94,2.83,0000 0000 0000 0000 000000
2013-10-03 01:12:24,0.05,0.03,0.00,19.98,22.89,25.48,6.02,29.83,1011.24,2067.70,3568.03,3372.23,3666.00,350.57,326.11,2.84,0000 0000 0000 0000 000000
2013-10-03 01:13:24,0.07,0.03,0.00,19.99,22.89,25.43,5.97,29.92,1011.24,2067.73,3568.04,3372.17,3666.00,349.85,325.43,2.85,0000 0000 0000 0000 000000
2013-10-03 01:14:24,0.05,0.03,0.00,19.98,22.89,25.53,6.08,29.92,1011.24,2067.79,3568.02,3372.14,3666.00,350.01,325.58,2.85,0000 0000 0000 0000 000000
2013-10-03 01:15:25,0.04,0.03,0.00,19.99,22.89,25.60,5.92,30.21,1011.24,2067.68,3568.00,3372.08,3666.00,350.55,326.35,2.86,0000 0000 0000 0000 000000
2013-10-03 01:16:25,-0.07,0.03,0.00,19.99,22.89,25.61,5.92,30.13,1011.24,2067.57,3568.00,3372.05,3666.00,349.76,325.02,2.86,0000 0000 0000 0000 000000
2013-10-03 01:17:25,-0.09,0.03,0.00,19.99,22.89,25.67,6.02,30.25,1011.25,2067.56,3568.00,3372.05,3665.99,349.52,325.11,2.87,0000 0000 0000 0000 000000
2013-10-03 01:18:25,0.00,0.03,0.00,19.99,22.89,25.63,5.93,30.13,1011.25,2067.57,3568.00,3372.07,3665.97,349.85,325.29,2.88,0000 0000 0000 0000 000000
2013-10-03 01:19:26,-0.02,0.03,0.00,19.99,22.89,25.57,5.98,30.00,1011.25,2067.49,3568.00,3372.04,3665.93,349.51,325.29,2.88,0000 0000 0000 0000 000000
2013-10-03 01:20:26,-0.08,0.03,0.00,19.98,22.89,25.69,5.90,30.00,1011.25,2067.32,3568.00,3372.01,3665.77,349.64,325.24,2.89,0000 0000 0000 0000 000000
2013-10-03 01:21:26,-0.07,0.03,0.00,19.99,22.89,25.53,5.96,29.96,1011.25,2067.21,3568.00,3372.01,3665.56,350.08,325.64,2.89,0000 0000 0000 0000 000000
2013-10-03 01:22:27,-0.01,0.03,0.00,19.98,22.89,25.55,6.08,29.75,1011.25,2067.37,3568.00,3372.00,3665.52,350.40,325.65,2.90,0000 0000 0000 0000 000000
2013-10-03 01:23:27,0.14,0.03,0.00,19.98,22.89,25.63,6.14,30.13,1011.23,2067.54,3567.99,3372.00,3665.57,349.37,325.05,2.90,0000 0000 0000 0000 000000
2013-10-03 01:24:27,0.10,0.03,0.00,19.97,22.89,25.65,5.95,29.92,1011.21,2067.56,3567.99,3372.00,3665.59,350.56,326.09,2.91,0000 0000 0000 0000 000000
2013-10-03 01:25:27,0.00,0.03,0.00,19.98,22.89,25.58,5.82,30.13,1011.10,2067.63,3567.99,3372.00,3665.51,349.34,325.14,2.92,0000 0000 0000 0000 000000
2013-10-03 01:26:27,0.07,0.03,0.00,19.99,22.89,25.58,6.06,30.00,1010.99,2067.67,3567.97,3372.00,3665.38,350.73,326.26,2.92,0000 0000 0000 0000 000000
2013-10-03 01:27:28,0.04,0.03,0.00,19.99,22.89,25.54,6.12,30.08,1010.90,2067.69,3567.98,3372.00,3665.31,349.75,325.22,2.93,0000 0000 0000 0000 000000
2013-10-03 01:28:28,0.01,0.03,0.00,19.99,22.89,25.57,5.94,30.13,1010.86,2067.57,3567.98,3372.00,3665.16,350.48,325.88,2.93,0000 0000 0000 0000 000000
2013-10-03 01:29:28,-0.07,0.03,0.00,19.99,22.89,25.56,6.04,29.83,1010.83,2067.43,3567.96,3372.00,3665.10,349.65,325.10,2.94,0000 0000 0000 0000 000000
2013-10-03 01:30:28,-0.06,0.03,0.00,19.99,22.89,25.69,6.06,30.29,1010.80,2067.48,3567.97,3372.00,3665.08,349.46,324.98,2.95,0000 0000 0000 0000 000000
2013-10-03 01:31:28,0.02,0.03,0.00,19.99,22.89,25.60,5.81,29.92,1010.78,2067.57,3567.95,3372.00,3665.11,349.27,325.03,2.95,0000 0000 0000 0000 000000
2013-10-03 01:32:29,0.05,0.03,0.00,19.99,22.89,25.59,6.08,30.13,1010.77,2067.56,3567.96,3372.00,3665.09,349.98,325.74,2.96,0000 0000 0000 0000 000000
2013-10-03 01:33:29,0.04,0.03,0.00,19.99,22.89,25.58,5.98,29.96,1010.77,2067.58,3567.95,3372.00,3665.04,349.61,325.07,2.96,0000 0000 0000 0000 000000
2013-10-03 01:34:29,-0.02,0.03,0.00,19.99,22.89,25.61,5.86,29.83,1010.78,2067.59,3567.97,3372.00,3665.07,350.46,325.84,2.97,0000 0000 0000 0000 000000
2013-10-03 01:35:29,0.01,0.03,0.00,19.99,22.89,25.61,6.03,30.17,1010.78,2067.64,3567.99,3372.00,3665.05,349.84,325.26,2.97,0000 0000 0000 0000 000000
2013-10-03 01:36:29,0.03,0.03,0.00,19.99,22.89,25.59,5.92,29.88,1010.80,2067.68,3567.98,3372.00,3665.04,349.70,325.14,2.98,0000 0000 0000 0000 000000
2013-10-03 01:37:30,0.04,0.03,0.00,19.99,22.89,25.54,5.96,29.96,1010.78,2067.67,3567.92,3372.00,3665.03,349.75,325.56,2.99,0000 0000 0000 0000 000000
2013-10-03 01:38:30,-0.00,0.03,0.00,19.99,22.90,25.54,6.07,30.08,1010.79,2067.63,3567.84,3372.00,3665.01,350.01,325.42,2.99,0000 0000 0000 0000 000000
2013-10-03 01:39:30,-0.01,0.03,0.00,19.99,22.90,25.57,5.91,30.00,1010.80,2067.67,3567.91,3371.99,3665.01,349.45,324.90,3.00,0000 0000 0000 0000 000000
2013-10-03 01:40:31,0.01,0.03,0.00,19.99,22.89,25.65,6.01,30.08,1010.83,2067.70,3567.85,3371.99,3665.00,349.81,324.79,3.00,0000 0000 0000 0000 000000
2013-10-03 01:41:31,0.03,0.03,0.00,19.99,22.89,25.70,5.88,30.25,1010.82,2067.68,3567.55,3371.98,3665.00,349.45,324.77,3.01,0000 0000 0000 0000 000000
2013-10-03 01:42:31,0.01,0.03,0.00,19.99,22.90,25.62,6.04,30.17,1010.81,2067.55,3567.39,3371.98,3665.00,350.21,325.62,3.02,0000 0000 0000 0000 000000
2013-10-03 01:43:32,-0.03,0.03,0.00,19.99,22.90,25.64,6.04,30.17,1010.85,2067.55,3567.24,3371.97,3665.00,350.24,325.48,3.02,0000 0000 0000 0000 000000
2013-10-03 01:44:32,0.00,0.03,0.00,19.99,22.90,25.61,5.96,30.08,1010.88,2067.52,3567.20,3371.96,3665.00,350.21,325.31,3.03,0000 0000 0000 0000 000000
2013-10-03 01:45:32,-0.01,0.03,0.00,19.99,22.90,25.65,6.00,30.08,1010.91,2067.49,3567.23,3371.95,3665.00,349.83,325.29,3.03,0000 0000 0000 0000 000000
2013-10-03 01:46:32,-0.03,0.03,0.00,20.00,22.90,25.64,5.93,30.04,1010.89,2067.40,3567.28,3371.96,3665.00,349.88,325.33,3.04,0000 0000 0000 0000 000000
2013-10-03 01:47:32,-0.03,0.03,0.00,19.99,22.90,25.59,6.08,30.08,1010.94,2067.49,3567.38,3371.98,3665.00,350.18,325.62,3.04,0000 0000 0000 0000 000000
2013-10-03 01:48:33,0.01,0.03,0.00,19.99,22.90,25.66,6.08,30.00,1011.02,2067.50,3567.40,3371.98,3665.00,350.32,325.85,3.05,0000 0000 0000 0000 000000
2013-10-03 01:49:33,0.02,0.03,0.00,19.99,22.90,25.55,5.97,30.13,1011.06,2067.51,3567.37,3371.98,3665.00,349.61,325.13,3.06,0000 0000 0000 0000 000000
2013-10-03 01:50:33,-0.03,0.03,0.00,19.99,22.90,25.52,5.93,30.08,1011.02,2067.41,3567.25,3371.95,3664.99,350.05,325.56,3.06,0000 0000 0000 0000 000000
2013-10-03 01:51:34,0.01,0.03,0.00,19.99,22.90,25.50,6.10,29.88,1011.12,2067.45,3567.19,3371.94,3664.99,350.32,325.82,3.07,0000 0000 0000 0000 000000
2013-10-03 01:52:34,-0.01,0.03,0.00,20.00,22.90,25.57,6.02,30.04,1011.12,2067.50,3567.16,3371.92,3664.99,349.67,325.34,3.07,0000 0000 0000 0000 000000
2013-10-03 01:53:34,0.06,0.03,0.00,19.99,22.90,25.59,6.15,30.08,1011.15,2067.67,3567.13,3371.95,3664.99,350.58,326.06,3.08,0000 0000 0000 0000 000000
2013-10-03 01:54:34,0.07,0.03,0.00,20.00,22.90,25.59,5.93,30.46,1011.15,2067.67,3567.13,3371.97,3664.99,350.07,325.58,3.09,0000 0000 0000 0000 000000
2013-10-03 01:55:34,0.01,0.03,0.00,20.00,22.90,25.56,5.84,30.29,1011.15,2067.66,3567.07,3371.94,3664.98,348.86,324.46,3.09,0000 0000 0000 0000 000000
2013-10-03 01:56:35,0.01,0.03,0.00,19.99,22.90,25.61,6.01,30.21,1011.18,2067.67,3567.05,3371.94,3664.99,350.03,325.57,3.10,0000 0000 0000 0000 000000
2013-10-03 01:57:35,0.00,0.03,0.00,19.99,22.91,25.65,6.02,30.13,1011.22,2067.75,3567.07,3371.96,3664.99,349.94,325.50,3.10,0000 0000 0000 0000 000000
2013-10-03 01:58:35,0.05,0.03,0.00,20.01,22.91,25.61,5.98,29.96,1011.23,2067.81,3567.06,3371.93,3664.99,350.04,325.58,3.11,0000 0000 0000 0000 000000
2013-10-03 01:59:35,0.07,0.03,0.00,20.01,22.91,25.57,6.04,30.13,1011.24,2067.87,3567.04,3371.86,3664.98,349.87,325.42,3.12,0000 0000 0000 0000 000000
2013-10-03 02:00:36,0.04,0.03,0.00,20.01,22.91,25.59,6.01,30.33,1011.24,2067.88,3567.02,3371.83,3664.97,349.35,324.94,3.12,0000 0000 0000 0000 000000
2013-10-03 02:01:36,-0.00,0.03,0.00,20.01,22.91,25.64,6.03,30.33,1011.24,2067.85,3567.00,3371.81,3664.96,350.05,325.59,3.13,0000 0000 0000 0000 000000
2013-10-03 02:02:36,0.01,0.03,0.00,20.01,22.91,25.63,6.02,30.25,1011.24,2067.79,3567.01,3371.70,3664.93,350.34,325.99,3.13,0000 0000 0000 0000 000000
2013-10-03 02:03:37,-0.01,0.03,0.00,20.02,22.91,25.56,5.98,30.04,1011.22,2067.83,3567.00,3371.73,3664.95,350.28,325.43,3.14,0000 0000 0000 0000 000000
2013-10-03 02:04:37,0.03,0.03,0.00,20.01,22.92,25.56,5.98,30.46,1011.22,2067.88,3567.02,3371.75,3664.96,350.45,325.56,3.14,0000 0000 0000 0000 000000
2013-10-03 02:05:37,0.02,0.03,0.00,20.01,22.91,25.60,5.90,30.42,1011.22,2067.85,3567.02,3371.68,3664.92,349.44,325.62,3.15,0000 0000 0000 0000 000000
2013-10-03 02:06:37,0.00,0.03,0.00,20.00,22.91,25.57,6.02,29.96,1011.20,2067.85,3567.00,3371.58,3664.93,350.54,326.15,3.16,0000 0000 0000 0000 000000
2013-10-03 02:07:38,0.00,0.03,0.00,20.00,22.92,25.61,6.03,30.08,1011.20,2067.87,3567.01,3371.49,3664.88,349.96,325.67,3.16,0000 0000 0000 0000 000000
2013-10-03 02:08:38,0.07,0.03,0.00,20.00,22.92,25.58,6.03,30.08,1011.13,2067.79,3567.00,3371.25,3664.67,350.50,325.98,3.17,0000 0000 0000 0000 000000
2013-10-03 02:09:38,-0.05,0.03,0.00,20.01,22.92,25.55,6.09,30.04,1011.17,2067.65,3567.00,3371.13,3664.45,350.42,325.91,3.17,0000 0000 0000 0000 000000
2013-10-03 02:10:38,-0.01,0.03,0.00,20.01,22.92,25.58,5.81,30.04,1011.18,2067.65,3567.00,3371.07,3664.25,350.10,325.53,3.18,0000 0000 0000 0000 000000
2013-10-03 02:11:38,0.02,0.03,0.00,20.02,22.92,25.50,5.89,30.42,1011.09,2067.69,3567.00,3371.06,3664.17,349.73,325.31,3.19,0000 0000 0000 0000 000000
2013-10-03 02:12:39,0.01,0.03,0.00,20.01,22.92,25.54,5.98,30.29,1011.05,2067.61,3566.99,3371.04,3664.11,349.62,325.57,3.19,0000 0000 0000 0000 000000
2013-10-03 02:13:39,-0.02,0.03,0.00,20.00,22.92,25.51,6.06,30.21,1011.00,2067.53,3566.99,3371.01,3664.05,349.34,324.86,3.20,0000 0000 0000 0000 000000
2013-10-03 02:14:40,-0.04,0.03,0.00,20.00,22.92,25.56,5.96,30.33,1011.04,2067.53,3566.99,3371.01,3664.04,349.75,325.26,3.20,0000 0000 0000 0000 000000
2013-10-03 02:15:40,-0.04,0.03,0.00,20.00,22.92,25.57,5.97,30.33,1010.91,2067.50,3566.98,3371.00,3664.04,349.33,324.83,3.21,0000 0000 0000 0000 000000
2013-10-03 02:16:40,0.02,0.03,0.00,20.00,22.92,25.65,6.02,30.25,1010.92,2067.54,3566.98,3371.02,3664.04,350.32,325.74,3.21,0000 0000 0000 0000 000000
2013-10-03 02:17:40,0.02,0.03,0.00,20.00,22.92,25.63,5.89,30.17,1010.92,2067.60,3566.98,3371.03,3664.02,349.52,324.58,3.22,0000 0000 0000 0000 000000
2013-10-03 02:18:40,0.05,0.03,0.00,20.00,22.92,25.59,6.10,30.29,1010.88,2067.74,3566.96,3371.05,3664.02,350.27,325.69,3.23,0000 0000 0000 0000 000000
2013-10-03 02:19:41,0.07,0.03,0.00,20.01,22.92,25.66,5.98,30.33,1010.89,2067.69,3566.97,3371.04,3664.01,349.78,325.23,3.23,0000 0000 0000 0000 000000
2013-10-03 02:20:41,0.02,0.03,0.00,20.02,22.92,25.62,6.06,30.54,1010.86,2067.75,3566.99,3371.04,3664.03,350.09,325.50,3.24,0000 0000 0000 0000 000000
2013-10-03 02:21:41,0.01,0.03,0.00,20.01,22.92,25.66,6.12,30.38,1010.80,2067.76,3566.97,3371.02,3664.01,350.19,325.57,3.24,0000 0000 0000 0000 000000
2013-10-03 02:22:41,0.01,0.03,0.00,20.00,22.92,25.61,5.81,30.29,1010.81,2067.78,3566.96,3371.02,3664.00,349.13,324.60,3.25,0000 0000 0000 0000 000000
2013-10-03 02:23:42,0.03,0.03,0.00,20.01,22.92,25.56,5.93,30.38,1010.79,2067.82,3566.94,3371.01,3664.01,349.51,324.99,3.26,0000 0000 0000 0000 000000
2013-10-03 02:24:42,0.01,0.03,0.00,20.02,22.92,25.62,6.04,30.50,1010.79,2067.82,3566.96,3371.02,3664.01,350.62,326.05,3.26,0000 0000 0000 0000 000000
2013-10-03 02:25:42,0.00,0.03,0.00,20.02,22.92,25.59,5.91,30.46,1010.82,2067.86,3566.98,3371.02,3664.01,349.20,324.65,3.27,0000 0000 0000 0000 000000
2013-10-03 02:26:42,0.03,0.03,0.00,20.01,22.92,25.58,6.08,30.63,1010.77,2067.85,3566.97,3371.02,3664.00,350.64,325.85,3.27,0000 0000 0000 0000 000000
2013-10-03 02:27:42,-0.02,0.03,0.00,20.01,22.92,25.62,5.93,30.75,1010.77,2067.73,3566.94,3371.01,3664.00,349.61,325.03,3.28,0000 0000 0000 0000 000000
2013-10-03 02:28:43,-0.04,0.03,0.00,20.00,22.92,25.58,6.08,30.58,1010.77,2067.78,3566.92,3371.00,3664.00,350.47,325.81,3.29,0000 0000 0000 0000 000000
2013-10-03 02:29:43,0.03,0.03,0.00,20.00,22.92,25.67,6.12,30.33,1010.79,2067.84,3566.88,3371.00,3664.00,350.38,326.00,3.29,0000 0000 0000 0000 000000
2013-10-03 02:30:43,0.02,0.03,0.00,20.01,22.92,25.61,5.97,30.79,1010.76,2067.83,3566.80,3371.00,3664.00,349.59,325.00,3.30,0000 0000 0000 0000 000000
2013-10-03 02:31:43,0.01,0.03,0.00,20.02,22.92,25.64,5.92,30.50,1010.77,2067.69,3566.51,3371.00,3664.00,349.87,325.41,3.30,0000 0000 0000 0000 000000
2013-10-03 02:32:43,-0.08,0.03,0.00,20.02,22.92,25.63,5.98,30.63,1010.77,2067.58,3566.28,3371.00,3663.99,349.63,325.01,3.31,0000 0000 0000 0000 000000
2013-10-03 02:33:44,-0.01,0.03,0.00,20.02,22.92,25.49,5.92,30.29,1010.77,2067.61,3566.25,3371.00,3663.99,350.30,325.66,3.31,0000 0000 0000 0000 000000
2013-10-03 02:34:44,0.00,0.03,0.00,20.01,22.92,25.58,6.02,30.63,1010.76,2067.59,3566.17,3371.00,3663.99,349.71,325.12,3.32,0000 0000 0000 0000 000000
2013-10-03 02:35:44,0.01,0.03,0.00,20.00,22.92,25.64,5.94,30.67,1010.76,2067.70,3566.12,3371.00,3663.99,349.32,324.76,3.33,0000 0000 0000 0000 000000
2013-10-03 02:36:45,0.09,0.03,0.00,20.00,22.92,25.67,5.96,30.38,1010.76,2067.74,3566.12,3371.00,3663.99,350.20,326.19,3.33,0000 0000 0000 0000 000000